| time (UTC) | temp F | wind direction | speed MPH | gust MPH | rain 1hr in | rain 24hr in | rain mn in | humidity % | barometer mb |
| 20260506043016 | 49 | 68 | 2.0 | 4.0 | 0.00 | 0.02 | 0.02 | 64 | 1007.5 |
| 20260506040017 | 49 | 90 | 2.0 | 4.0 | 0.00 | 0.02 | 0.02 | 66 | 1007.3 |
| 20260506033017 | 50 | 90 | 2.0 | 4.0 | 0.00 | 0.02 | 0.02 | 65 | 1007.5 |
| 20260506030016 | 51 | 90 | 1.0 | 4.0 | 0.00 | 0.02 | 0.02 | 63 | 1007.5 |
| 20260506023016 | 53 | 203 | 1.0 | 6.0 | 0.00 | 0.02 | 0.02 | 60 | 1007.5 |
| 20260506020016 | 54 | 203 | 3.0 | 9.0 | 0.00 | 0.02 | 0.02 | 58 | 1008.0 |
| 20260506013016 | 56 | 203 | 3.0 | 7.0 | 0.00 | 0.02 | 0.02 | 56 | 1008.1 |
| 20260506010016 | 56 | 203 | 2.0 | 8.0 | 0.00 | 0.02 | 0.02 | 55 | 1007.9 |
| 20260506003016 | 56 | 203 | 2.0 | 8.0 | 0.00 | 0.02 | 0.02 | 53 | 1007.7 |
| 20260506000056 | 58 | 180 | 2.0 | 10.0 | 0.00 | 0.02 | 0.02 | 51 | 1008.2 |
| 20260505233016 | 58 | 203 | 1.0 | 9.0 | 0.00 | 0.02 | 0.02 | 47 | 1008.0 |
| 20260505230016 | 56 | 158 | 1.0 | 7.0 | 0.00 | 0.02 | 0.02 | 49 | 1007.8 |
| 20260505223016 | 55 | 0.0 | 2.0 | 0.00 | 0.02 | 0.02 | 52 | 1008.2 | |
| 20260505220016 | 55 | 0.0 | 4.0 | 0.00 | 0.02 | 0.02 | 54 | 1008.5 | |
| 20260505213015 | 55 | 203 | 1.0 | 5.0 | 0.00 | 0.02 | 0.02 | 50 | 1008.6 |
| 20260505210015 | 55 | 203 | 2.0 | 8.0 | 0.00 | 0.02 | 0.02 | 50 | 1008.4 |
| 20260505203056 | 54 | 180 | 4.0 | 8.0 | 0.00 | 0.02 | 0.02 | 57 | 1008.4 |
| 20260505200017 | 53 | 158 | 2.0 | 7.0 | 0.00 | 0.02 | 0.02 | 57 | 1007.9 |
| 20260505193057 | 53 | 158 | 3.0 | 9.0 | 0.00 | 0.02 | 0.02 | 55 | 1007.7 |
| 20260505190017 | 52 | 158 | 3.0 | 8.0 | 0.00 | 0.02 | 0.02 | 60 | 1008.1 |
| 20260505183017 | 51 | 158 | 4.0 | 10.0 | 0.00 | 0.02 | 0.02 | 61 | 1008.1 |
| 20260505180057 | 51 | 180 | 5.0 | 12.0 | 0.00 | 0.02 | 0.02 | 64 | 1008.0 |
| 20260505173017 | 50 | 158 | 5.0 | 11.0 | 0.00 | 0.02 | 0.02 | 70 | 1007.8 |
| 20260505170057 | 49 | 158 | 5.0 | 13.0 | 0.00 | 0.02 | 0.02 | 69 | 1007.6 |
| 20260505163017 | 48 | 158 | 5.0 | 12.0 | 0.00 | 0.02 | 0.02 | 71 | 1007.9 |
| 20260505153017 | 48 | 135 | 5.0 | 13.0 | 0.00 | 0.02 | 0.02 | 71 | 1008.2 |
| 20260505123016 | 52 | 135 | 3.0 | 10.0 | 0.00 | 0.02 | 0.02 | 60 | 1007.3 |
| 20260505120016 | 52 | 90 | 4.0 | 11.0 | 0.01 | 0.02 | 0.02 | 61 | 1007.4 |
| 20260505113017 | 52 | 90 | 5.0 | 12.0 | 0.01 | 0.02 | 0.02 | 61 | 1007.5 |
| 20260505100016 | 53 | 90 | 2.0 | 9.0 | 0.00 | 0.01 | 0.01 | 66 | 1007.9 |
| 20260505093016 | 55 | 0.0 | 3.0 | 0.00 | 0.01 | 0.01 | 62 | 1008.2 | |
| 20260505090016 | 56 | 0.0 | 4.0 | 0.00 | 0.01 | 0.01 | 52 | 1007.8 | |
| 20260505083016 | 56 | 90 | 3.0 | 11.0 | 0.00 | 0.01 | 0.01 | 51 | 1008.2 |
| 20260505080016 | 56 | 113 | 5.0 | 13.0 | 0.00 | 0.01 | 0.01 | 53 | 1007.9 |
| 20260505073016 | 55 | 113 | 6.0 | 18.0 | 0.01 | 0.01 | 0.01 | 57 | 1007.9 |
| 20260505070016 | 52 | 135 | 4.0 | 15.0 | 0.01 | 0.01 | 0.01 | 72 | 1007.4 |
| 20260505063016 | 54 | 158 | 4.0 | 11.0 | 0.00 | 0.00 | 0.00 | 75 | 1008.4 |
| 20260505060016 | 55 | 180 | 5.0 | 12.0 | 0.00 | 0.00 | 0.00 | 71 | 1008.6 |
| 20260505053017 | 55 | 158 | 5.0 | 15.0 | 0.00 | 0.00 | 0.00 | 69 | 1008.0 |